TimeEDT,TemperatureF,Dew PointF,Humidity,Sea Level PressureIn,VisibilityMPH,Wind Direction,Wind SpeedMPH,Gust SpeedMPH,PrecipitationIn,Events,Conditions,WindDirDegrees,DateUTC
12:53 AM,64.9,55.0,70,30.08,10.0,East,8.1,-,N/A,,Clear,100,2014-08-09 04:53:00
1:53 AM,63.0,55.0,75,30.10,10.0,East,5.8,-,N/A,,Clear,100,2014-08-09 05:53:00
2:53 AM,62.1,55.9,80,30.08,10.0,ENE,6.9,-,N/A,,Clear,70,2014-08-09 06:53:00
3:53 AM,61.0,57.0,87,30.08,8.0,East,3.5,-,N/A,,Clear,90,2014-08-09 07:53:00
4:53 AM,61.0,55.9,83,30.09,8.0,Calm,Calm,-,N/A,,Clear,0,2014-08-09 08:53:00
5:53 AM,61.0,57.0,87,30.09,7.0,East,5.8,-,N/A,,Clear,80,2014-08-09 09:53:00
6:53 AM,60.1,55.9,86,30.09,4.0,NE,3.5,-,N/A,,Clear,40,2014-08-09 10:53:00
7:53 AM,62.1,57.9,86,30.10,5.0,East,4.6,-,N/A,,Clear,80,2014-08-09 11:53:00
8:53 AM,64.9,59.0,81,30.09,7.0,ENE,8.1,-,N/A,,Clear,70,2014-08-09 12:53:00
9:53 AM,72.0,61.0,68,30.09,10.0,East,9.2,-,N/A,,Clear,90,2014-08-09 13:53:00
10:53 AM,75.9,59.0,56,30.10,10.0,East,10.4,-,N/A,,Clear,80,2014-08-09 14:53:00
11:53 AM,79.0,59.0,50,30.11,10.0,East,11.5,-,N/A,,Clear,90,2014-08-09 15:53:00
1:53 PM,82.9,57.0,41,30.09,10.0,East,9.2,-,N/A,,Clear,90,2014-08-09 17:53:00
2:53 PM,82.9,57.9,42,30.08,9.0,East,10.4,-,N/A,,Clear,90,2014-08-09 18:53:00
3:53 PM,84.0,55.9,38,30.06,10.0,East,10.4,-,N/A,,Clear,80,2014-08-09 19:53:00
4:53 PM,84.9,55.9,37,30.05,10.0,East,11.5,-,N/A,,Clear,90,2014-08-09 20:53:00
5:53 PM,84.0,57.0,40,30.04,10.0,East,9.2,-,N/A,,Clear,90,2014-08-09 21:53:00
6:53 PM,82.9,57.0,41,30.04,10.0,East,10.4,-,N/A,,Clear,90,2014-08-09 22:53:00
7:53 PM,80.1,57.0,45,30.04,10.0,East,10.4,-,N/A,,Clear,80,2014-08-09 23:53:00
8:53 PM,73.0,55.9,55,30.06,10.0,East,9.2,-,N/A,,Clear,80,2014-08-10 00:53:00
9:53 PM,69.1,55.9,63,30.07,10.0,East,9.2,-,N/A,,Clear,90,2014-08-10 01:53:00